Regional Weather Roundup
Issued by NWS State College, PA

Home | Current Version | Previous Version | Text Only | Print | Product List | Glossary Off
Versions: 1 2 3 4 5 6 7 8 9 10 11 12 13 14 15 16 17 18 19 20 21 22 23 24 25 26 27 28 29 30 31 32 33 34 35 36 37 38 39 40 41 42 43 44 45 46 47 48 49 50

000
ASUS41 KCTP 020403
RWRCTP

REGIONAL WEATHER ROUNDUP
NATIONAL WEATHER SERVICE STATE COLLEGE PA
1100 PM EST THU DEC 01 2016

Note: "fair" indicates few or no clouds below 12,000 feet with no
significant weather and/or obstructions to visibility.

* = STATION THAT DOES NOT REPORT PRECIPITATION /E.G. RAIN...SNOW...ETC/
    THUNDER OR FOG.

PAZ002>004-007>009-013>016-020>023-029>032-020500-
WESTERN PENNSYLVANIA

CITY           SKY/WX    TMP DP  RH WIND       PRES   REMARKS
ERIE           LGT RAIN  37  34  89 SW17      29.84S
MEADVILLE      CLOUDY    36  30  79 SW16      29.86R
FRANKLIN*        N/A     36  27  69 SW10G21   29.88S
NEW CASTLE     CLOUDY    37  30  75 SW10      29.92R
BEAVER COUNTY  NOT AVBL
BUTLER*        CLOUDY    36  27  69 W15       29.95R
PITTSBURGH INT CLOUDY    39  29  67 W12       29.93R
PITTSBURGH     CLOUDY    37  25  61 SW17G23   29.93R
INDIANA*       CLOUDY    36  28  75 W15       29.93R
LATROBE        CLOUDY    37  27  65 SW12      29.95R
WASHINGTON CO* CLOUDY    37  25  60 SW9       29.96R
$$

PAZ004>006-010>012-017>019-024>028-033>037-041-042-045-046-049>053-020500-
CENTRAL PENNSYLVANIA

CITY           SKY/WX    TMP DP  RH WIND       PRES   REMARKS
BRADFORD       CLOUDY    33  30  88 W9        29.79S
DUBOIS         CLOUDY    35  27  72 W17       29.84S
CLEARFIELD     CLOUDY    36  28  73 SW12      29.86R
JOHNSTOWN      CLOUDY    33  25  72 W15G22    29.86S
ALTOONA        CLOUDY    37  26  64 W10       29.90R
STATE COLLEGE  CLOUDY    36  28  71 W10G16    29.87R
WILLIAMSPORT   CLOUDY    41  28  60 W13       29.85S
SELINSGROVE    CLEAR     38  28  67 CALM      29.89R
FT INDIANTOWN  PTCLDY    38  27  64 W9        29.88S
CAPITAL CITY   CLOUDY    44  26  49 W8        29.91R
HARRISBURG     CLOUDY    44  29  55 W9        29.90S
YORK           CLOUDY    42  30  62 W3        29.93R
$$

PAZ038>040-043-044-047-048-054-055-060>062-067>071-020500-
EASTERN PENNSYLVANIA

CITY           SKY/WX    TMP DP  RH WIND       PRES   REMARKS
SCRANTON       CLEAR     37  27  67 SW7       29.82R
MOUNT POCONO   CLEAR     32  24  72 W14       29.78R
ALLENTOWN      PTCLDY    35  25  66 SW6       29.86S
QUAKERTOWN*    CLEAR     39  27  60 W7        29.86F
READING        CLEAR     41  25  53 W12       29.87S
LANCASTER      CLOUDY    41  30  65 W10       29.90S
COATESVILLE    CLOUDY    41  28  60 W10       29.91R
POTTSTOWN      CLEAR     40  25  55 W6        29.89S
BLUE BELL      CLEAR     39  28  65 W5        29.88R
DOYLESTOWN     CLEAR     41  27  57 SW5       29.85F
WILLOW GROVE   NOT AVBL
NORTH PHILA    PTCLDY    42  26  53 W10       29.90R
PHILADELPHIA   NOT AVBL
$$




USA.gov is the U.S. government's official web portal to all federal, state and local government web resources and services.